TimeCDT,TemperatureF,Dew PointF,Humidity,Sea Level PressureIn,VisibilityMPH,Wind Direction,Wind SpeedMPH,Gust SpeedMPH,PrecipitationIn,Events,Conditions,WindDirDegrees,DateUTC
2:15 AM,76.3,76.3,100,30.11,10.0,South,5.8,-,N/A,,Clear,190,2013-08-12 07:15:00
2:35 AM,76.1,76.1,100,30.11,10.0,South,6.9,-,N/A,,Clear,190,2013-08-12 07:35:00
2:55 AM,76.1,76.1,100,30.11,10.0,South,5.8,-,N/A,,Clear,180,2013-08-12 07:55:00
3:15 AM,75.6,75.6,100,30.11,10.0,SSW,3.5,-,N/A,,Clear,200,2013-08-12 08:15:00
3:35 AM,75.4,75.4,100,30.11,10.0,South,5.8,-,N/A,,Clear,170,2013-08-12 08:35:00
3:55 AM,75.2,75.2,100,30.10,10.0,SSW,4.6,-,N/A,,Clear,200,2013-08-12 08:55:00
4:15 AM,75.2,75.2,100,30.10,10.0,South,5.8,-,N/A,,Clear,180,2013-08-12 09:15:00
4:35 AM,74.8,74.8,100,30.10,10.0,South,5.8,-,N/A,,Clear,180,2013-08-12 09:35:00
4:55 AM,74.7,74.7,100,30.10,10.0,South,5.8,-,N/A,,Clear,180,2013-08-12 09:55:00
5:15 AM,74.5,74.5,100,30.10,10.0,South,6.9,-,N/A,,Clear,180,2013-08-12 10:15:00
5:35 AM,74.5,74.5,100,30.10,10.0,South,4.6,-,N/A,,Clear,190,2013-08-12 10:35:00
5:55 AM,74.5,74.5,100,30.10,10.0,Calm,Calm,-,N/A,,Clear,0,2013-08-12 10:55:00
6:15 AM,74.3,74.3,100,30.11,10.0,South,4.6,-,N/A,,Clear,190,2013-08-12 11:15:00
6:35 AM,74.3,74.3,100,30.11,10.0,Calm,Calm,-,N/A,,Clear,0,2013-08-12 11:35:00
6:55 AM,74.3,74.3,100,30.12,10.0,Calm,Calm,-,N/A,,Clear,0,2013-08-12 11:55:00
7:15 AM,74.5,74.5,100,30.12,10.0,SSW,3.5,-,N/A,,Clear,200,2013-08-12 12:15:00
7:35 AM,75.2,75.2,100,30.12,10.0,SSW,3.5,-,N/A,,Clear,200,2013-08-12 12:35:00
7:55 AM,76.3,76.3,100,30.12,10.0,SSW,3.5,-,N/A,,Clear,210,2013-08-12 12:55:00
8:15 AM,77.9,77.0,97,30.13,10.0,SW,5.8,-,N/A,,Clear,220,2013-08-12 13:15:00
8:35 AM,79.2,75.0,87,30.13,10.0,SW,6.9,-,N/A,,Clear,220,2013-08-12 13:35:00
9:15 AM,80.1,74.7,83,30.13,10.0,SW,4.6,-,N/A,,Scattered Clouds,230,2013-08-12 14:15:00
9:35 AM,81.7,75.0,80,30.13,10.0,WSW,5.8,-,N/A,,Scattered Clouds,240,2013-08-12 14:35:00
9:55 AM,82.4,74.7,77,30.13,10.0,WSW,6.9,-,N/A,,Scattered Clouds,250,2013-08-12 14:55:00
10:15 AM,83.8,73.8,72,30.14,10.0,SW,8.1,-,N/A,,Scattered Clouds,220,2013-08-12 15:15:00
10:35 AM,85.3,73.8,68,30.14,10.0,SW,4.6,-,N/A,,Scattered Clouds,230,2013-08-12 15:35:00
10:55 AM,85.6,72.5,65,30.14,10.0,SSW,8.1,-,N/A,,Scattered Clouds,210,2013-08-12 15:55:00
11:15 AM,86.7,72.7,63,30.14,10.0,WSW,6.9,-,N/A,,Mostly Cloudy,240,2013-08-12 16:15:00
11:35 AM,87.3,72.0,60,30.13,10.0,WSW,6.9,-,N/A,,Scattered Clouds,240,2013-08-12 16:35:00
11:55 AM,87.1,71.4,59,30.12,10.0,WSW,3.5,-,N/A,,Scattered Clouds,250,2013-08-12 16:55:00
12:15 PM,87.4,70.5,57,30.11,10.0,West,8.1,-,N/A,,Scattered Clouds,260,2013-08-12 17:15:00
12:35 PM,88.3,69.1,53,30.10,10.0,West,6.9,-,N/A,,Scattered Clouds,260,2013-08-12 17:35:00
12:55 PM,90.0,70.2,52,30.09,10.0,SSW,6.9,-,N/A,,Clear,210,2013-08-12 17:55:00
1:15 PM,89.8,69.4,51,30.09,10.0,SW,8.1,-,N/A,,Scattered Clouds,220,2013-08-12 18:15:00
1:35 PM,91.8,70.2,49,30.09,10.0,Calm,Calm,-,N/A,,Scattered Clouds,0,2013-08-12 18:35:00
1:55 PM,90.5,70.5,52,30.08,10.0,SSW,5.8,-,N/A,,Scattered Clouds,210,2013-08-12 18:55:00
2:15 PM,91.8,69.6,48,30.07,10.0,SSW,6.9,-,N/A,,Scattered Clouds,200,2013-08-12 19:15:00
2:35 PM,91.2,69.1,48,30.07,10.0,SW,4.6,-,N/A,,Scattered Clouds,220,2013-08-12 19:35:00
2:55 PM,92.5,69.6,47,30.04,10.0,South,8.1,-,N/A,,Scattered Clouds,180,2013-08-12 19:55:00
3:15 PM,92.3,69.3,47,30.04,10.0,SW,8.1,-,N/A,,Scattered Clouds,220,2013-08-12 20:15:00
3:35 PM,87.8,70.3,56,30.05,10.0,SW,11.5,21.9,N/A,,Clear,230,2013-08-12 20:35:00
3:55 PM,84.6,71.4,65,30.03,10.0,SSW,6.9,-,N/A,,Scattered Clouds,210,2013-08-12 20:55:00
4:15 PM,87.6,70.0,56,30.02,10.0,SSW,5.8,-,N/A,,Clear,200,2013-08-12 21:15:00
4:35 PM,90.0,69.3,50,30.01,10.0,South,8.1,-,N/A,,Clear,190,2013-08-12 21:35:00
4:55 PM,90.9,70.5,51,30.01,10.0,South,6.9,-,N/A,Thunderstorm,Clear,190,2013-08-12 21:55:00
5:15 PM,91.0,70.5,51,30.01,10.0,SSW,8.1,-,N/A,,Clear,200,2013-08-12 22:15:00
5:35 PM,90.5,69.6,50,30.01,10.0,SSW,3.5,-,N/A,,Clear,200,2013-08-12 22:35:00
5:55 PM,91.4,70.7,51,30.01,10.0,SSW,4.6,-,N/A,,Clear,200,2013-08-12 22:55:00
6:15 PM,90.9,70.9,52,30.00,10.0,South,4.6,-,N/A,,Clear,180,2013-08-12 23:15:00
6:35 PM,90.5,72.3,55,30.01,10.0,SSE,6.9,-,N/A,,Mostly Cloudy,160,2013-08-12 23:35:00
6:55 PM,90.0,72.7,57,30.01,10.0,South,8.1,-,N/A,,Scattered Clouds,180,2013-08-12 23:55:00
7:15 PM,87.8,72.9,61,30.01,10.0,SSE,5.8,-,N/A,,Clear,160,2013-08-13 00:15:00
7:35 PM,85.1,74.7,71,30.02,10.0,Calm,Calm,-,N/A,,Clear,0,2013-08-13 00:35:00
7:55 PM,85.1,74.3,70,30.03,10.0,South,4.6,-,N/A,,Clear,170,2013-08-13 00:55:00
8:15 PM,84.2,74.8,73,30.03,10.0,South,5.8,-,N/A,,Clear,190,2013-08-13 01:15:00
8:35 PM,83.1,75.2,77,30.03,10.0,Calm,Calm,-,N/A,,Clear,0,2013-08-13 01:35:00
8:55 PM,82.6,75.6,79,30.03,10.0,Calm,Calm,-,N/A,,Clear,0,2013-08-13 01:55:00
9:15 PM,82.0,77.0,85,30.03,10.0,South,4.6,-,N/A,,Clear,180,2013-08-13 02:15:00
9:35 PM,81.9,77.0,85,30.03,10.0,Calm,Calm,-,N/A,,Clear,0,2013-08-13 02:35:00
9:55 PM,81.0,77.9,90,30.02,10.0,South,6.9,-,N/A,Thunderstorm,Clear,190,2013-08-13 02:55:00
10:15 PM,81.1,76.5,86,30.04,10.0,South,6.9,-,N/A,Thunderstorm,Clear,180,2013-08-13 03:15:00
10:35 PM,81.0,76.1,85,30.05,10.0,South,5.8,-,N/A,Thunderstorm,Clear,180,2013-08-13 03:35:00
10:55 PM,80.4,76.5,88,30.08,10.0,North,13.8,19.6,N/A,Thunderstorm,Thunderstorm,360,2013-08-13 03:55:00
11:15 PM,81.1,71.6,73,30.09,10.0,North,8.1,19.6,N/A,Thunderstorm,Thunderstorm,360,2013-08-13 04:15:00